Regional Weather Roundup
Issued by NWS Lake Charles, LA

Home | Current Version | Previous Version | Text Only | Print | Product List | Glossary On
Versions: 1 2 3 4 5 6 7 8 9 10 11 12 13 14 15 16 17 18 19 20 21 22 23 24 25 26 27 28 29 30 31 32 33 34 35 36 37 38 39 40 41 42 43 44 45 46 47 48 49 50
000
ASUS44 KLCH 231811
RWRLCH
REGIONAL WEATHER ROUNDUP
NATIONAL WEATHER SERVICE LAKE CHARLES LA
100 PM CDT SAT SEP 23 2017

Note: "fair" indicates few or no clouds below 12,000 feet with no
significant weather and/or obstructions to visibility.


ACROSS SOUTHEAST TEXAS

CITY           SKY/WX    TMP DP  RH WIND       PRES   REMARKS
BEAUMONT       NOT AVBL
BEAUMONT CITY  FAIR      89  71  56 SE6       29.94F
ORANGE         PTCLDY    87  73  63 E12       29.95F
JASPER           N/A     89  72  57 CALM      29.98S
$$

ACROSS CENTRAL LOUISIANA

CITY           SKY/WX    TMP DP  RH WIND       PRES   REMARKS
LEESVILLE      MOSUNNY   89  71  54 S6        29.95F
FULLERTON      MOCLDY    89  70  53 NE3       29.93F
ALEXANDRIA INT NOT AVBL
ESLER FIELD    NOT AVBL
DERIDDER       MOCLDY    89  68  50 SE6       29.98F
OAKDALE        PTCLDY    87  71  57 CALM      29.95F
OPELOUSAS      FAIR      90  69  49 E5        29.96S
$$

ACROSS SOUTHWEST AND SOUTH CENTRAL LOUISIANA

CITY           SKY/WX    TMP DP  RH WIND       PRES   REMARKS
SULPHUR        PTCLDY    91  69  48 E10       29.95F
LAKE CHARLES   MOSUNNY   91  70  49 E9        29.94S
CHENNAULT INT  NOT AVBL
CAMERON PHI      N/A     86  73  66 SE10      29.93F
DEQUINCY       FAIR      87  69  55 E6        29.96F
JENNINGS       FAIR      88  71  55 E5        29.95S
LAFAYETTE      PTSUNNY   90  72  55 NE7       29.95F
NEW IBERIA     MOSUNNY   88  70  55 CALM      29.96F
ABBEVILLE      MOCLDY    88  72  58 SE6       29.95F
PATTERSON      NOT AVBL
SALT POINT       N/A     88  71  57 E8        29.93F
$$

SELECTED SITES ACROSS THE REGION

CITY           SKY/WX    TMP DP  RH WIND       PRES   REMARKS
HOUSTON BUSH   MOSUNNY   89  70  53 S10G17    29.93F
HOUSTON HOBBY  PTSUNNY   89  73  59 E9        29.92F
GALVESTON      NOT AVBL
COLLEGE STAT   NOT AVBL
CONROE         SUNNY     88  72  58 SE6       29.94F
HUNTSVILLE     NOT AVBL
LUFKIN         NOT AVBL
SHREVEPORT     MOSUNNY   91  70  49 E5          N/A
MONROE         MOSUNNY   91  70  49 S3        29.98F
NATCHEZ MS     PTSUNNY   89  71  55 SE7       29.98F
BATON ROUGE    MOSUNNY   90  67  46 E12       29.95F
N.O. INTL ARPT MOSUNNY   89  72  56 NE14      29.94F
SLIDELL        NOT AVBL
$$

MARINE REPORTS

STATION/POSITION TIME  SKY/WX   TEMP    WIND        PRES    VSBY
                                AIR SEA DIR/SP/G
                 (UTC)          (F)     (DEG/KT/KT) (MB)    (MI)
BUOY 30 S HIGH I 1650            82 83   90/ 10/ 12 1013.9
WVE H/P(F/S)=  2/ 5

SEA RIM ST PARK  1800            85     140/  8/ 11 1014.4F
PORT ARTHUR      1736            84 83   80/  6/ 10 1014.3F
SABINE PASS N    1736            84 85  130/  8/ 11 1015.5F
TEXAS POINT      NOT AVBL
CALCASIEU PASS   1748            85 85  150/  4/ 11 1013.0F
LK CHARLES BEACH 1748            89 81              1013.5F
MARSH ISLAND     1700            82                   N/A
FRESH WATER LOCK 1748            85 86   90/  9/ 12 1014.1F
AMERADA PASS     1748            85 83  120/  5/ 10 1013.8F
$$



USA.gov is the U.S. government's official web portal to all federal, state and local government web resources and services.